Temp
14 14 14 14 14 14 13 13 13 13 13 13 13 13 13 13 13 13 13 13 13 13 12 12 12 12 12 12 12 12 12 12 12 12 12 12 12 12 13 13 13 13 13 13 13 13 13 12 13 13 13 13 13 13 13 13 13 13 13 13 12 12 12 12 12 12 12 12 11
14 14 14 14 13 13 13 13 13 13 13 13 13 13 13 13 13 13 12 12 12 12 12 12 11 11 11 11 11 11 11 12 12 12 12 12 12 12 12 12 12 12 12 12 12 12 12 12 12 12 12 12 13 13 13 12 12 12 12 12 12 12 12 12 12 12 12 12 12
14 14 13 13 13 13 13 13 13 12 12 12 12 12 12 12 12 12 12 12 11 11 11 11 11 11 11 11 11 11 11 11 11 11 11 11 11 11 11 11 11 11 11 11 11 11 11 12 12 12 12 12 12 12 12 12 12 12 12 12 12 12 12 12 12 12 12 12 12
13 13 13 13 13 13 13 12 12 12 12 12 12 12 11 11 11 11 11 11 11 11 11 10 10 10 10 10 10 10 10 10 10 10 10 10 10 10 10 11 11 11 11 11 11 11 11 11 11 11 12 12 12 12 12 12 12 12 12 12 12 12 12 12 12 12 12 12 12
13 13 13 13 13 12 12 12 12 11 11 11 11 11 11 10 10 10 10 10 10 10 10 10 10 10 10 9 9 9 9 9 9 9 9 9 9 10 10 10 10 10 10 10 10 10 10 11 11 11 11 11 11 12 12 12 12 12 12 12 12 12 12 12 12 12 12 12 12
13 12 12 12 12 12 11 11 11 11 11 10 10 10 10 10 10 9 9 9 9 9 9 9 9 9 9 9 9 9 9 9 9 9 9 9 9 9 9 9 9 10 10 10 10 10 10 10 10 10 11 11 11 11 11 11 11 11 12 12 12 12 12 12 12 12 12 12 12
12 12 11 11 11 11 11 10 10 10 10 10 10 10 10 9 9 9 9 9 9 9 9 9 9 9 9 9 9 9 8 8 8 8 9 9 9 9 9 9 9 9 9 9 9 9 10 10 10 10 10 10 11 11 11 11 11 11 11 11 11 11 11 11 12 12 12 12 12
11 11 11 11 10 10 10 10 10 10 9 9 9 9 9 9 9 9 9 8 8 8 8 8 8 8 8 8 8 8 8 8 8 8 8 8 8 9 9 9 9 9 9 9 9 9 9 9 9 10 10 10 10 10 10 10 10 11 11 11 11 11 11 11 11 11 11 11 11
11 10 10 10 10 10 10 9 9 9 9 9 9 9 8 8 8 8 8 8 8 7 7 7 7 7 7 7 7 7 7 7 8 8 8 8 8 8 8 8 8 9 9 9 9 9 9 9 9 9 9 10 10 10 10 10 10 10 10 11 11 11 11 11 11 11 11 11 11
10 10 9 9 9 9 9 9 9 9 8 8 8 8 8 8 7 7 7 7 7 6 6 6 6 6 6 6 6 6 7 7 7 7 7 7 8 8 8 8 8 8 8 8 8 8 8 9 9 9 9 9 9 9 10 10 10 10 10 10 10 11 11 11 11 11 10 10 10
9 9 9 9 9 8 8 8 8 8 8 8 7 7 7 7 6 6 6 6 6 6 6 5 5 5 5 5 6 6 6 6 6 6 6 7 7 7 7 7 8 8 8 8 8 8 8 8 8 9 9 9 9 9 9 9 9 10 10 10 10 10 11 11 11 11 11 10 10
8 8 8 8 8 8 8 8 7 7 7 7 6 6 6 6 5 5 5 5 5 5 5 5 5 5 5 5 5 5 5 5 5 5 6 6 6 6 6 7 7 7 7 7 8 8 8 8 8 8 8 8 9 9 9 9 9 9 9 10 10 10 10 10 11 11 11 10 10
8 8 8 7 7 7 7 7 7 6 6 6 5 5 5 5 4 4 4 4 4 4 4 4 4 4 4 4 4 4 4 4 5 5 5 5 5 5 6 6 6 6 7 7 7 7 7 7 7 8 8 8 8 8 9 9 9 9 9 9 9 10 10 10 10 10 10 10 10
7 7 7 6 6 6 6 6 6 5 5 5 4 4 4 4 4 4 3 3 3 3 3 3 3 4 4 4 4 4 4 4 4 4 5 5 5 5 5 5 6 6 6 6 6 6 6 6 7 7 7 8 8 8 8 8 9 9 9 9 9 9 10 10 10 10 10 10 10
6 6 6 6 6 6 5 5 5 4 4 4 3 3 3 3 3 3 3 3 3 3 3 3 3 3 3 3 4 4 4 4 4 4 5 5 5 5 5 5 5 6 6 6 6 6 6 6 6 6 7 7 7 7 8 8 8 8 9 9 9 9 9 10 10 10 10 10 10
5 5 5 5 5 5 4 4 4 4 3 3 3 3 3 3 3 3 3 3 3 3 3 3 3 3 3 4 4 4 4 4 4 4 5 5 5 5 5 5 5 6 6 6 6 6 6 5 5 6 6 6 6 7 7 7 8 8 8 8 8 9 9 9 9 9 9 9 9
4 4 4 4 4 3 3 3 3 3 3 3 2 2 2 2 2 2 2 2 3 3 3 3 3 3 3 3 3 4 4 4 5 5 5 5 5 5 5 5 5 6 6 6 5 5 5 5 5 5 5 5 6 6 6 6 7 7 7 7 7 8 8 8 8 8 8 8 8
3 3 3 3 3 2 2 2 2 2 2 2 2 2 2 2 2 2 2 2 2 3 3 3 3 3 3 3 3 4 4 4 4 5 5 5 5 5 5 5 5 5 6 5 5 5 5 5 5 5 5 5 5 5 6 6 6 6 6 6 6 6 6 7 7 7 7 8 8
2 2 2 2 2 2 2 2 2 2 2 2 2 2 2 2 2 2 2 2 2 2 3 3 3 3 3 3 3 4 4 4 4 4 4 4 4 4 4 5 5 5 5 5 5 5 5 5 5 5 5 5 5 5 5 5 5 5 5 5 5 5 5 5 5 6 6 6 6
2 1 1 1 2 2 2 2 2 1 1 1 2 2 2 2 2 2 2 2 2 2 3 3 3 3 3 3 3 4 4 4 4 4 4 4 4 4 4 4 4 5 4 4 5 5 5 5 5 4 4 4 5 5 5 5 5 5 5 5 4 4 4 4 5 5 5 5 5
1 1 1 1 2 2 1 1 1 1 1 1 1 2 2 2 2 2 2 2 2 3 3 3 3 3 3 3 3 3 3 3 3 4 4 4 4 4 4 4 4 4 4 4 4 5 5 5 4 3 4 4 4 4 4 4 4 4 4 4 4 4 4 4 4 4 4 5 5
1 1 1 1 1 1 1 1 1 1 1 1 1 1 2 2 2 2 2 2 2 3 3 3 3 3 3 3 3 3 3 3 3 3 3 3 3 4 4 4 4 4 4 4 4 4 4 3 3 3 3 3 3 3 3 3 4 4 4 4 4 4 4 4 4 4 4 4 4
1 1 1 1 1 1 1 1 1 1 1 1 1 1 2 2 2 2 2 2 3 3 3 3 3 3 3 3 3 3 3 3 3 3 3 3 3 3 3 3 3 3 3 3 3 3 3 3 3 3 3 2 2 2 2 3 3 3 3 3 3 3 3 3 3 3 3 4 4
1 1 1 1 1 1 1 1 1 1 1 1 1 1 2 2 2 2 2 3 3 3 3 3 3 3 3 2 2 2 2 3 3 3 3 3 3 3 3 3 3 3 3 2 2 2 2 2 2 3 2 2 2 2 2 2 2 2 2 2 2 2 2 2 3 3 3 3 3
1 1 1 1 1 1 1 1 1 1 1 1 1 1 1 2 2 2 2 2 3 3 3 3 3 2 2 2 2 2 2 2 3 3 2 2 2 2 2 3 3 3 3 3 3 2 2 2 2 2 2 2 2 2 1 1 1 1 2 2 2 2 2 2 2 2 2 2 2
1 1 1 1 1 1 1 1 1 1 1 1 1 1 1 1 1 2 2 2 2 2 2 2 2 2 2 2 2 2 2 2 2 2 2 2 2 2 2 2 2 3 3 3 3 2 2 2 1 2 2 2 2 1 1 1 1 1 1 1 1 1 1 1 1 1 1 2 2
0 0 0 0 1 1 1 1 1 1 1 1 1 1 1 1 1 1 2 2 2 2 2 2 2 2 2 2 2 2 2 2 2 2 1 1 1 1 2 2 2 2 2 2 2 2 2 2 1 1 1 1 1 1 0 0 0 0 0 0 0 0 0 0 0 0 1 1 1
0 0 0 0 0 1 1 1 1 1 1 1 1 1 1 1 1 1 1 2 2 2 2 2 2 1 1 1 1 1 1 1 1 1 1 1 1 1 1 1 2 2 2 2 2 2 2 2 1 1 1 1 1 0 -0 -0 -0 -0 -0 -0 -0 -0 -0 -1 -0 -0 -0 0 0
0 0 0 0 0 1 1 1 1 1 1 0 0 1 1 1 1 1 1 1 1 1 1 1 1 1 1 1 1 1 1 1 1 0 0 0 0 0 1 1 1 2 2 2 2 2 2 1 1 1 0 1 0 -0 -0 -1 -1 -1 -1 -1 -1 -1 -1 -1 -1 -1 -1 -1 -0
0 0 0 0 0 0 1 1 1 0 0 0 0 0 1 1 1 1 1 1 1 1 1 1 1 1 1 0 0 1 1 0 0 0 0 -0 -0 -0 0 0 1 1 1 1 1 1 1 1 1 0 0 0 -0 -0 -1 -1 -1 -1 -1 -1 -1 -1 -1 -1 -1 -1 -1 -1 -1
-0 -0 0 0 0 0 0 0 0 0 0 0 0 0 0 1 1 1 1 1 1 1 1 1 1 1 0 0 0 0 -0 -0 -0 -0 -0 -0 -0 -0 -0 0 0 1 1 1 1 1 1 1 0 -0 -0 -0 -0 -1 -1 -1 -1 -1 -1 -1 -1 -1 -1 -1 -1 -2 -1 -1 -1
-0 -0 -0 -0 -0 0 0 0 0 0 0 0 0 0 0 0 0 0 0 1 1 1 1 1 1 0 0 0 -0 -0 -1 -1 -1 -1 -1 -1 -0 -0 -0 -0 0 0 1 1 1 1 0 0 -0 -1 -1 -0 -1 -1 -1 -1 -1 -2 -2 -2 -2 -2 -2 -2 -2 -2 -2 -2 -2
-0 -0 -0 -0 -0 -0 0 0 0 0 -0 -0 -0 0 0 0 0 0 0 0 0 0 1 1 0 0 0 -0 -0 -1 -1 -1 -1 -1 -1 -1 -1 -1 -1 -1 -0 -0 0 0 1 1 0 -0 -1 -1 -1 -1 -1 -1 -1 -1 -2 -2 -2 -2 -2 -2 -2 -2 -2 -2 -2 -2 -2
-0 -0 -0 -0 -0 -0 0 0 0 0 0 -0 -0 0 0 0 0 0 -0 -0 -0 0 0 0 0 0 -0 -0 -1 -1 -1 -1 -1 -1 -1 -1 -1 -1 -1 -1 -1 -1 -0 0 0 0 -0 -1 -1 -1 -1 -1 -1 -1 -1 -2 -2 -2 -2 -2 -2 -2 -3 -3 -3 -3 -2 -2 -2
-0 -0 -0 -0 -0 -0 -0 0 0 0 -0 -0 -0 0 0 0 0 0 -0 -0 -0 -0 0 -0 -0 -0 -0 -1 -1 -1 -1 -2 -2 -2 -2 -1 -1 -2 -2 -2 -2 -1 -1 -0 -0 -0 -0 -1 -1 -1 -1 -1 -2 -2 -2 -2 -2 -2 -2 -2 -2 -3 -3 -3 -3 -3 -3 -3 -2
-0 -0 -0 -0 -0 -0 -0 0 0 0 -0 -0 -0 -0 -0 -0 -0 -0 -0 -0 -0 -0 -0 -0 -0 -0 -1 -1 -1 -1 -2 -2 -2 -2 -2 -2 -2 -2 -2 -2 -2 -2 -1 -1 -1 -0 -0 -1 -1 -2 -2 -2 -2 -2 -2 -3 -3 -3 -3 -3 -3 -3 -3 -3 -3 -3 -3 -3 -3
-0 -0 -0 -0 -0 -0 -0 -0 0 0 -0 -0 -0 -0 -0 -0 -0 -0 -0 -0 -0 -0 -0 -1 -1 -1 -1 -1 -1 -2 -2 -2 -2 -2 -2 -2 -2 -2 -2 -2 -2 -2 -2 -1 -1 -1 -1 -1 -1 -2 -2 -2 -2 -3 -3 -3 -3 -3 -3 -3 -3 -3 -3 -3 -3 -3 -3 -3 -3
-1 -0 -0 -0 -0 -0 -0 -0 -0 -0 -0 -0 -1 -1 -0 -0 -0 -0 -0 -1 -0 -0 -1 -1 -1 -1 -1 -1 -1 -2 -2 -2 -2 -2 -2 -2 -3 -3 -3 -3 -3 -2 -2 -2 -2 -1 -1 -1 -1 -2 -2 -3 -3 -3 -3 -3 -3 -3 -3 -3 -3 -4 -4 -4 -4 -4 -4 -3 -3
-1 -0 -0 -0 -1 -1 -1 -0 -0 -0 -0 -1 -1 -1 -0 -0 -0 -1 -1 -1 -1 -1 -1 -1 -1 -2 -2 -2 -2 -2 -2 -2 -3 -3 -3 -3 -3 -3 -3 -3 -3 -3 -2 -2 -2 -2 -2 -1 -2 -2 -2 -3 -3 -4 -4 -4 -4 -3 -3 -3 -4 -4 -4 -4 -4 -4 -4 -4 -4
-1 -1 -1 -1 -1 -1 -1 -1 -1 -1 -1 -1 -1 -1 -1 -1 -1 -1 -1 -1 -1 -1 -1 -1 -1 -2 -2 -2 -2 -2 -3 -3 -3 -3 -3 -3 -3 -3 -3 -3 -3 -3 -3 -3 -3 -2 -2 -2 -2 -2 -2 -3 -4 -4 -4 -4 -4 -4 -4 -4 -4 -4 -4 -4 -4 -4 -4 -4 -4
-1 -1 -1 -1 -1 -1 -1 -1 -1 -1 -1 -1 -2 -1 -1 -1 -1 -1 -1 -1 -1 -1 -1 -1 -2 -2 -2 -2 -2 -3 -3 -3 -3 -3 -3 -3 -3 -3 -4 -4 -3 -3 -3 -3 -3 -3 -2 -2 -2 -2 -2 -3 -4 -4 -4 -4 -4 -4 -4 -4 -4 -5 -5 -5 -5 -5 -5 -4 -4
Height
743 743 743 744 744 744 745 745 745 746 746 746 745 745 745 745 745 745 745 745 745 745 744 744 744 744 744 744 744 744 743 743 743 743 743 743 743 743 743 742 742 742 742 741 741 741 741 741 740 740 740 740 740 740 740 740 740 740 740 740 740 740 740 739 740 740 740 740 740
743 743 743 743 743 744 744 745 745 745 745 745 744 744 744 744 744 744 744 744 744 744 744 744 744 743 743 743 743 743 743 743 743 743 742 742 742 742 741 741 741 741 740 740 740 739 739 739 739 739 739 739 739 739 739 739 739 739 738 738 738 738 738 738 738 738 738 738 738
742 742 742 742 743 743 743 744 744 744 744 744 744 743 743 743 743 743 743 743 743 743 743 743 743 743 743 742 742 742 742 742 742 742 742 741 741 741 741 740 740 740 739 739 738 738 738 738 738 738 737 737 737 738 738 737 737 737 737 737 737 737 737 737 737 737 737 737 737
742 742 741 742 742 742 743 743 743 744 743 743 743 743 743 743 742 742 742 742 742 742 742 742 742 742 742 742 742 742 741 741 741 741 741 741 740 740 740 739 739 739 738 738 738 737 737 736 736 736 736 736 736 736 736 736 736 735 735 735 735 735 735 735 735 735 735 736 736
741 741 741 741 741 742 742 743 743 743 743 743 742 742 742 742 742 741 741 741 741 741 742 742 741 741 741 741 741 741 741 741 740 740 740 740 739 739 738 738 738 738 737 737 736 736 735 735 735 735 735 735 734 734 734 734 734 734 734 734 734 734 734 734 734 734 734 734 734
739 740 740 741 741 741 742 742 742 742 742 742 742 741 741 741 741 741 741 741 741 741 741 741 741 741 741 740 740 740 740 740 740 739 739 738 738 738 738 737 737 736 736 735 735 734 734 734 734 733 733 733 733 733 733 733 733 733 732 732 733 733 733 733 733 733 733 733 733
738 738 739 740 740 741 741 741 741 741 741 741 741 741 740 740 740 740 740 740 740 740 740 740 740 740 740 740 739 739 739 739 738 738 738 737 737 737 736 736 735 735 734 734 733 733 733 733 732 732 732 732 732 732 731 731 731 731 731 731 731 731 731 731 731 731 731 732 731
738 738 738 739 739 740 740 740 740 741 741 740 740 740 740 740 740 740 740 740 739 739 739 739 739 739 739 738 738 738 738 737 737 737 736 736 735 735 734 734 733 733 733 732 732 732 731 731 731 730 730 730 730 730 730 730 730 730 730 730 730 730 730 729 729 730 730 730 730
737 737 737 738 738 739 739 740 740 740 740 740 740 740 739 739 739 739 739 739 738 738 738 738 738 738 738 737 737 736 736 735 735 734 734 734 733 733 733 732 732 732 731 731 730 730 729 729 729 729 729 729 729 729 729 729 729 728 728 728 728 728 728 728 728 728 728 728 728
736 736 737 737 738 738 738 739 739 739 739 739 739 739 739 739 738 738 738 738 738 737 737 737 737 736 736 735 735 734 734 733 733 733 732 732 732 731 731 730 730 729 729 729 729 728 728 728 728 727 727 727 728 728 728 728 727 727 727 727 727 727 727 727 727 727 727 727 727
736 736 736 737 737 738 738 738 738 738 738 738 738 738 738 738 738 737 737 737 736 736 736 735 735 735 734 734 733 733 732 732 731 731 730 730 730 729 729 728 728 728 728 727 727 727 726 726 726 726 726 726 726 726 726 726 726 726 726 725 725 725 725 725 725 725 725 725 725
736 736 736 736 736 737 737 737 738 738 738 738 738 737 737 737 737 736 736 735 735 735 734 734 734 733 733 732 732 731 731 730 730 729 729 728 728 728 727 727 726 726 726 725 725 725 725 724 724 724 724 724 724 724 724 724 724 724 724 724 724 724 724 724 724 724 724 724 724
737 736 736 736 736 736 736 736 737 737 737 737 737 736 736 736 736 735 735 734 734 734 733 733 733 732 732 731 731 730 730 729 729 728 728 727 727 726 725 725 725 724 724 724 723 723 723 723 723 723 723 723 723 723 723 723 722 722 722 722 722 722 722 722 722 722 722 722 722
737 736 736 736 735 735 735 736 736 736 736 736 736 736 736 735 735 735 734 734 733 733 733 732 732 732 731 731 730 729 729 728 728 728 727 726 726 725 724 724 723 723 723 723 723 722 722 722 722 722 722 722 722 721 721 721 721 720 720 720 720 720 720 721 721 721 721 720 720
737 736 736 735 735 735 735 735 735 735 735 735 735 735 735 735 734 734 733 733 733 732 732 732 731 731 731 730 729 729 728 728 727 727 726 725 725 724 724 723 723 723 722 722 722 722 721 721 721 721 721 720 720 720 720 719 719 719 718 718 718 718 718 719 719 719 719 719 719
737 736 736 735 734 734 734 734 735 735 735 735 735 735 734 734 734 733 733 733 732 732 732 731 731 730 730 729 729 728 728 727 727 726 725 725 724 724 723 723 723 722 722 722 722 721 721 721 720 720 720 720 719 718 718 718 717 717 717 717 717 717 717 717 717 717 717 717 717
737 736 735 735 734 734 734 734 734 734 734 734 734 734 734 734 733 733 733 733 732 732 731 731 730 730 729 729 728 728 727 727 726 725 725 724 724 724 723 723 722 722 722 721 721 721 721 721 720 720 720 719 718 717 717 716 716 715 715 715 715 715 715 715 715 715 715 715 715
736 736 735 735 734 734 734 734 734 734 734 734 734 734 734 734 733 733 733 733 732 732 731 731 730 730 729 728 728 728 727 726 726 725 725 725 724 724 723 723 722 722 721 721 721 721 721 721 720 720 719 718 717 716 715 715 714 714 714 714 714 714 714 714 714 714 714 714 714
736 736 735 734 734 734 734 734 734 734 734 734 734 734 734 734 733 733 733 732 732 732 731 730 730 729 729 728 728 727 727 727 726 725 725 725 724 724 723 723 722 722 722 721 721 721 721 720 719 719 718 717 716 715 715 714 713 713 713 714 714 714 714 714 714 714 713 713 713
736 736 735 734 733 734 734 734 734 734 734 734 734 734 734 733 733 733 733 732 732 731 731 730 729 729 728 728 727 727 727 726 726 726 725 725 725 724 723 723 722 722 721 721 720 720 720 719 718 718 717 716 715 714 714 713 713 713 713 714 714 714 714 714 714 714 713 713 713
735 735 734 733 734 734 734 734 734 734 734 733 733 733 733 733 733 733 732 732 731 731 730 730 729 728 728 728 727 727 727 726 726 726 725 725 725 724 724 723 722 721 721 720 720 719 719 719 718 717 716 715 714 714 713 713 713 713 713 714 714 715 715 715 715 714 714 714 713
734 734 733 734 734 734 734 734 734 733 733 733 733 733 733 733 733 732 732 732 731 731 730 729 729 728 728 728 727 727 727 727 726 726 726 725 725 724 724 723 722 721 721 720 719 719 718 718 717 716 715 715 714 714 713 713 713 714 714 714 715 715 715 715 715 715 715 714 714
733 733 734 734 734 734 734 734 733 733 733 733 733 733 733 733 732 732 732 731 731 730 730 729 729 728 728 728 728 727 727 726 726 726 725 725 725 724 723 723 722 721 721 720 720 719 718 717 717 716 715 715 714 714 714 714 714 714 715 715 715 715 716 716 715 715 715 715 714
733 734 734 734 734 734 734 733 733 733 732 732 733 733 733 732 732 732 731 731 730 730 730 729 729 728 728 728 728 727 726 726 726 726 725 725 725 724 723 723 722 722 722 721 720 719 718 718 717 717 716 715 715 715 715 715 715 715 715 715 716 716 716 716 716 715 715 715 715
733 734 734 735 734 734 733 733 732 732 732 732 733 733 732 732 732 731 731 731 730 730 730 729 729 728 728 728 727 727 726 726 726 725 725 725 724 723 723 723 723 723 723 722 721 720 719 719 718 717 716 716 716 716 716 716 716 716 716 716 716 716 717 716 716 716 716 715 715
734 734 734 734 734 733 733 732 732 732 732 732 732 732 732 732 732 731 731 730 730 730 730 729 728 728 728 728 727 727 726 726 726 726 725 725 724 723 723 723 723 723 723 722 722 721 720 719 718 717 717 716 716 716 716 716 716 717 717 717 717 717 717 717 717 716 716 716 716
734 734 734 734 734 733 733 732 732 732 732 732 732 732 732 732 731 731 731 730 730 730 729 729 728 728 728 728 727 727 726 726 726 725 725 725 724 724 723 723 723 723 723 722 722 721 721 720 719 718 717 717 717 717 717 717 717 717 717 717 718 718 718 718 717 717 716 716 716
734 734 734 734 733 733 732 732 732 732 732 732 732 732 732 732 731 731 730 730 730 730 729 729 728 728 728 728 728 727 727 727 726 726 725 725 724 724 724 723 723 723 723 722 722 721 721 720 720 719 718 718 717 718 718 718 718 718 718 718 718 718 718 718 718 718 717 717 716
734 734 734 733 733 732 732 732 732 732 732 732 732 732 732 731 731 731 730 730 730 730 729 729 728 728 728 728 728 727 727 727 727 726 726 725 725 724 724 723 723 723 723 722 722 722 721 721 720 720 719 718 718 718 718 718 718 718 718 719 719 719 719 719 718 718 718 717 717
734 733 733 733 732 732 732 732 732 732 732 732 732 732 732 731 731 731 730 730 730 730 729 729 729 728 728 728 728 728 728 727 727 727 726 726 726 725 724 723 723 723 723 723 723 722 722 722 721 720 720 719 719 718 718 718 719 719 719 719 719 719 719 719 719 718 718 718 717
733 733 733 732 732 732 732 732 732 732 732 732 732 732 732 731 731 731 731 730 730 730 730 729 729 729 728 728 728 728 728 728 728 727 727 727 726 725 725 724 723 723 724 723 723 723 723 722 722 721 720 720 720 719 719 719 719 719 719 719 719 719 719 719 719 719 718 718 717
733 732 732 731 731 731 732 732 732 732 732 732 732 732 731 731 731 731 731 730 730 730 730 729 729 729 728 728 728 728 728 728 728 728 727 727 727 726 725 724 724 724 724 724 724 723 723 722 722 721 721 720 720 720 720 720 720 720 720 720 720 720 720 720 719 719 718 718 718
732 732 731 731 731 731 732 732 732 732 732 732 732 731 731 731 731 731 731 731 730 730 730 729 729 729 729 729 729 729 729 729 728 728 728 727 727 726 726 725 725 725 725 725 725 724 723 722 722 721 721 720 720 720 720 720 720 720 720 720 720 720 720 720 720 719 719 718 718
731 731 731 731 731 731 732 732 732 732 732 732 732 731 731 731 731 731 731 731 730 730 729 729 729 729 729 729 729 729 729 729 729 728 728 728 727 727 726 726 726 726 726 726 725 724 723 722 722 722 721 721 720 720 720 720 720 721 721 721 720 720 720 720 720 720 719 718 718
731 731 731 731 731 731 731 731 731 731 732 731 731 731 731 731 731 731 731 731 730 730 730 729 729 729 729 729 729 729 730 730 729 729 728 728 728 727 727 727 727 727 726 726 726 725 724 723 722 722 721 721 721 721 721 721 721 721 721 721 720 720 720 720 720 720 719 719 718
731 731 731 731 731 731 731 731 731 731 731 731 731 731 731 731 731 730 730 730 730 730 730 730 730 729 729 730 730 730 730 730 730 729 728 728 728 728 728 728 727 727 727 726 726 725 724 723 722 722 721 721 721 721 721 721 721 721 721 720 720 720 720 720 720 719 719 718 718
731 731 731 731 731 731 731 731 731 731 731 731 731 731 731 730 730 730 730 730 730 730 730 730 730 730 730 730 730 731 731 730 730 729 729 729 729 728 728 728 728 727 727 726 726 725 725 724 723 722 722 721 721 721 721 721 721 721 721 720 720 720 720 719 719 719 718 718 718
731 731 731 731 732 731 731 731 731 731 731 731 731 731 730 730 730 730 730 730 730 730 730 730 730 730 731 731 731 731 731 731 730 730 730 730 729 729 729 728 728 727 727 727 726 726 725 724 723 722 722 722 722 722 722 721 721 721 721 720 720 719 719 719 719 718 718 718 717
731 731 731 732 732 732 732 732 732 731 731 731 731 731 731 730 730 730 730 730 730 730 731 731 731 731 731 731 731 731 731 731 731 730 730 730 730 730 729 729 728 728 727 727 727 726 725 724 723 723 722 722 722 722 722 722 722 721 721 720 720 719 718 718 718 718 717 717 717
732 732 732 732 732 732 732 732 732 732 732 731 732 731 731 731 731 731 731 731 731 731 731 731 731 731 731 731 731 731 731 731 731 731 731 730 730 730 730 729 728 728 728 727 727 726 726 725 724 723 723 722 723 723 723 723 722 722 721 721 720 719 718 718 718 717 717 716 716
732 733 733 733 733 732 732 732 732 732 732 732 732 732 732 732 732 732 732 732 732 732 732 732 732 732 732 732 731 731 731 731 731 731 731 731 731 730 730 729 729 728 728 727 727 727 726 725 725 724 723 723 723 723 723 723 723 722 722 721 720 720 719 718 718 717 716 716 715
Wind_Speed
9 9 9 8 7 6 5 4 3 3 2 2 2 2 2 2 3 3 4 4 4 4 5 5 5 5 5 6 6 6 6 7 7 7 8 8 9 9 9 10 10 10 11 11 11 11 11 10 10 9 8 7 6 6 5 5 5 5 6 6 6 6 6 7 8 9 10 12 14
9 8 8 7 6 5 4 3 3 3 2 2 2 2 2 3 3 3 3 3 3 3 4 4 4 4 4 4 5 5 5 6 6 7 7 8 8 9 9 9 10 10 10 10 10 10 10 9 9 8 7 7 6 6 5 4 4 4 5 5 5 6 6 7 7 8 8 10 11
8 8 7 6 5 4 4 3 3 3 2 2 2 2 2 2 3 3 3 2 3 3 3 3 3 3 3 3 3 4 4 5 5 5 5 6 6 7 7 7 8 8 8 9 8 8 8 8 8 7 7 6 6 5 5 4 4 4 4 5 5 5 6 6 7 7 8 9 10
8 7 6 6 5 5 4 3 3 3 2 2 2 2 2 2 2 2 2 3 3 3 3 3 3 3 3 2 2 2 3 4 4 4 4 4 4 4 5 5 6 6 6 7 7 7 7 7 7 6 6 6 6 5 5 4 4 4 5 5 5 6 6 7 7 8 9 10 10
8 7 6 6 5 5 4 4 4 3 3 2 3 3 3 3 3 2 3 3 2 2 3 3 3 3 3 3 3 3 3 3 4 4 4 4 3 4 4 4 5 5 5 5 6 6 6 6 6 6 6 6 6 5 5 5 5 5 5 6 6 6 7 7 7 8 9 10 11
9 8 7 6 5 5 5 4 4 4 3 3 3 4 3 2 2 2 2 1 2 3 3 4 5 5 6 6 6 6 6 6 6 6 6 6 5 5 5 5 5 5 5 5 6 6 6 7 7 7 7 7 6 6 6 5 5 5 6 6 6 6 7 7 8 9 9 10 11
9 8 8 7 7 6 6 5 4 4 3 3 3 3 2 2 2 2 2 3 4 5 6 7 8 8 9 9 10 10 10 10 10 10 10 10 9 9 8 8 7 7 7 7 7 7 7 8 8 8 8 7 7 7 7 6 6 6 7 7 7 7 7 8 8 9 9 10 11
10 9 9 8 7 7 6 5 4 3 3 2 2 3 3 3 4 4 5 6 6 7 9 10 10 11 11 12 12 13 13 13 13 14 14 13 13 13 12 12 11 11 10 10 10 10 10 9 9 9 9 9 9 8 8 7 7 7 8 8 8 8 8 8 9 9 10 10 11
11 10 9 8 7 6 5 4 3 3 3 3 4 4 5 5 6 7 7 8 8 10 11 11 12 12 12 13 13 13 14 14 15 15 15 16 16 16 16 15 15 14 14 13 13 13 12 12 12 11 11 11 10 10 10 9 9 9 9 9 9 9 9 9 9 10 10 10 11
11 10 9 8 6 5 4 3 3 3 4 5 5 6 7 7 8 8 8 9 10 11 11 11 12 12 12 12 12 13 13 14 14 15 15 16 16 16 16 16 16 16 16 15 15 14 14 14 14 14 13 13 13 12 12 12 11 11 11 11 11 11 11 11 11 11 11 11 11
10 9 7 6 4 3 2 2 3 4 5 6 6 7 7 8 8 8 9 10 10 10 10 10 10 10 10 10 10 10 11 11 12 12 13 13 13 13 14 14 14 14 15 15 14 14 14 14 14 15 15 15 14 14 14 14 13 13 13 13 13 13 13 12 12 12 12 12 12
7 6 5 4 2 1 2 3 4 5 6 6 6 7 7 7 8 8 9 9 8 8 8 9 9 8 8 8 8 7 7 8 8 8 9 10 10 10 10 11 11 11 12 12 12 11 11 12 12 13 14 14 15 15 15 14 14 15 15 14 14 14 14 14 14 14 13 13 13
4 3 2 2 1 1 2 4 4 5 5 5 6 6 6 6 6 7 7 7 7 7 7 7 6 6 6 5 5 5 5 5 5 6 6 7 7 7 8 8 8 8 9 9 9 8 9 9 10 11 12 13 13 14 14 14 14 15 15 15 15 16 16 16 16 15 15 15 14
2 1 1 0 1 2 2 3 3 4 4 4 5 5 5 5 5 6 6 6 6 6 6 5 5 4 4 4 4 4 4 4 4 4 5 5 5 6 6 6 7 7 7 7 6 6 6 7 8 9 10 11 12 13 13 13 14 14 15 15 16 17 17 17 17 17 16 15 15
0 1 1 1 2 2 2 3 3 4 4 4 4 5 5 5 5 5 5 5 5 5 5 5 4 3 3 3 3 4 4 4 5 6 6 6 6 6 6 6 6 6 6 5 5 5 5 6 6 8 9 10 11 11 12 12 13 13 14 15 16 16 17 17 17 16 16 15 14
1 2 2 2 3 3 3 4 4 4 4 4 4 4 4 5 5 5 5 5 5 5 5 5 4 4 3 4 4 4 5 5 6 7 7 7 7 7 7 6 5 4 3 3 3 3 3 4 5 5 6 7 8 9 9 10 11 12 13 13 14 15 15 15 15 15 14 14 13
2 3 3 3 4 4 5 5 4 4 4 4 4 4 4 4 4 4 5 5 5 5 5 4 4 4 5 5 5 5 5 6 7 7 8 8 9 9 9 7 5 4 3 2 2 3 4 4 4 5 5 5 4 5 5 6 7 8 9 10 11 11 11 12 12 12 12 12 12
4 4 4 4 5 6 6 6 5 5 4 4 4 4 4 4 4 4 5 5 5 5 5 4 4 5 5 6 6 5 5 6 6 7 8 9 10 10 9 8 7 7 5 3 2 4 5 5 6 5 5 5 4 4 4 3 3 3 3 3 3 4 4 5 6 7 8 8 8
5 5 6 6 7 7 6 6 6 5 5 4 4 4 4 4 4 4 4 5 5 5 5 5 5 6 6 6 6 5 5 5 6 7 8 10 10 9 9 8 8 7 5 2 3 5 6 6 5 4 4 5 5 6 6 6 6 6 6 7 7 7 6 5 3 2 1 1 1
7 7 7 7 7 7 6 6 6 6 5 5 4 4 4 4 4 4 5 5 5 5 5 5 6 7 7 7 6 5 5 5 6 8 9 10 10 9 9 9 9 8 7 6 7 8 7 5 5 5 6 7 8 9 9 9 10 10 11 11 12 12 12 12 11 10 9 8 7
8 7 7 7 6 6 6 7 6 6 5 5 4 4 4 4 4 5 5 5 5 5 5 6 7 8 9 8 8 6 5 6 7 9 10 10 9 9 10 12 12 12 12 11 11 9 8 8 10 11 12 12 12 12 12 12 12 12 12 12 12 12 12 12 12 13 13 13 13
8 7 7 6 6 7 7 7 7 6 6 5 5 4 4 5 5 6 6 5 5 5 6 6 7 8 9 9 8 7 6 6 8 9 9 10 9 10 12 14 15 16 16 15 13 12 11 12 14 15 15 16 16 16 15 14 13 13 12 12 11 11 11 11 11 12 12 13 13
7 6 6 6 6 7 7 7 7 7 6 5 5 5 5 5 6 6 6 5 5 6 6 6 7 8 9 9 8 8 7 8 8 9 10 9 10 11 14 16 17 18 18 18 16 15 15 14 14 14 15 16 17 17 17 16 15 14 14 13 13 12 12 12 11 11 12 12 12
7 6 6 7 7 7 8 8 8 7 6 6 5 5 5 6 6 6 6 6 5 5 5 5 6 8 9 9 9 9 9 9 10 10 10 10 12 14 16 17 17 17 18 18 17 16 15 14 14 13 14 15 16 16 16 16 15 14 14 14 14 14 14 13 13 12 12 12 12
7 7 7 7 8 8 8 8 8 7 7 6 5 5 5 6 7 7 6 5 5 5 5 5 6 8 9 9 9 9 9 10 10 10 11 12 14 16 16 16 15 15 15 16 16 16 15 15 14 13 13 13 13 14 15 15 15 14 14 14 14 14 14 14 13 13 13 12 12
7 7 7 7 8 8 8 8 8 7 7 6 5 5 5 6 7 7 6 6 5 5 5 6 7 7 8 9 9 9 10 10 10 10 11 13 15 17 17 15 14 13 13 14 15 15 16 15 15 14 13 12 12 12 13 13 13 14 14 14 14 13 13 13 13 13 13 12 12
7 7 6 7 7 8 8 8 8 7 6 6 5 5 6 6 7 7 7 6 6 6 6 7 7 7 7 8 9 10 10 11 10 11 12 13 15 16 16 15 14 13 13 13 14 15 16 16 15 14 13 12 12 12 12 12 13 14 14 14 14 14 13 13 13 13 13 13 12
6 6 6 6 7 8 8 8 8 7 7 6 6 5 6 6 7 8 8 7 7 7 8 8 8 8 8 8 9 10 11 11 12 13 14 14 15 16 16 16 15 15 14 14 14 15 15 15 15 15 14 12 12 13 13 13 14 14 15 14 14 14 14 14 13 13 13 13 13
6 5 5 5 6 7 8 8 7 7 6 6 6 6 6 7 8 8 8 8 8 9 9 9 8 8 9 10 10 11 11 12 12 13 14 14 15 16 17 17 17 16 16 15 15 15 15 15 15 15 14 13 12 13 14 14 15 15 15 15 15 15 14 14 14 14 14 13 13
5 5 5 5 6 7 7 8 7 6 6 6 6 6 6 7 8 9 8 8 8 9 9 9 9 9 11 12 12 12 12 12 12 12 13 13 14 15 17 17 18 17 17 16 15 14 14 15 15 15 15 14 13 13 13 14 15 15 15 15 15 15 15 15 15 14 14 14 13
5 5 5 6 6 6 7 7 6 6 6 6 6 6 6 7 8 8 8 7 7 7 8 8 9 10 12 13 13 13 12 12 11 11 12 12 13 14 15 17 17 17 17 15 14 13 13 14 15 15 15 15 13 13 13 13 14 15 15 14 14 14 15 15 15 15 14 14 14
5 5 5 6 6 6 6 6 6 6 6 6 6 6 7 7 7 8 7 6 5 5 6 8 9 10 11 13 13 13 12 12 12 12 12 12 12 13 14 15 16 16 16 15 14 13 13 13 14 15 15 15 14 13 12 13 13 14 14 14 14 14 14 15 15 14 14 14 14
5 5 6 6 6 6 5 6 6 6 5 5 6 6 6 6 6 7 7 6 5 5 6 7 8 10 11 12 12 12 12 12 12 12 11 11 11 12 13 14 14 15 15 15 14 13 13 13 13 14 15 15 15 14 12 12 13 13 14 13 13 13 13 14 14 14 14 13 14
5 6 6 6 5 5 5 5 5 5 5 5 5 6 6 6 6 6 6 6 6 5 6 7 7 8 10 12 12 12 12 12 12 12 12 12 12 12 13 14 14 14 14 15 14 13 13 13 13 13 14 14 15 14 13 12 13 13 13 13 12 12 13 14 14 14 14 13 13
6 6 6 6 5 4 4 4 4 4 4 5 5 5 6 6 6 5 4 5 5 5 6 6 7 8 10 11 12 12 11 11 12 13 13 13 13 13 13 14 13 14 14 14 14 14 14 13 14 13 13 14 14 14 14 13 13 13 13 12 12 12 13 13 14 14 13 13 13
6 5 5 5 4 4 4 4 4 4 4 4 5 5 6 6 6 4 1 4 5 5 6 7 8 9 10 11 11 11 11 11 12 13 14 14 14 13 14 14 14 14 14 14 14 14 14 14 13 13 13 13 14 14 14 13 13 13 13 13 12 12 13 14 14 14 13 13 13
5 5 5 4 4 4 4 4 3 3 4 5 5 5 6 7 7 5 0 5 7 7 7 8 9 9 9 9 9 10 11 11 12 14 15 15 14 14 14 14 14 15 15 15 14 14 14 14 13 13 13 13 13 14 14 14 13 13 13 13 13 13 14 14 14 14 14 13 13
5 5 5 5 5 4 4 4 3 4 5 5 6 5 6 8 8 5 4 8 9 8 8 9 10 10 9 8 8 10 11 13 14 15 15 15 15 14 14 14 15 15 15 15 15 14 14 15 13 12 12 13 12 13 13 13 13 13 13 14 14 14 14 15 15 14 14 14 13
6 5 5 6 6 5 5 4 4 4 5 6 6 6 6 7 8 8 9 9 9 9 9 10 11 11 10 10 10 10 12 13 14 15 15 16 15 15 15 15 15 15 15 15 14 14 14 15 14 12 12 12 11 11 12 12 12 12 13 14 15 15 15 15 15 14 14 14 13
6 5 5 5 6 5 5 4 4 4 6 8 8 6 6 6 9 10 10 9 8 8 9 9 10 10 11 11 11 11 12 12 13 13 14 15 15 15 16 16 15 15 14 14 14 13 13 14 14 13 12 11 11 10 11 11 11 11 12 13 14 15 15 15 15 14 14 14 14
5 5 5 5 6 5 5 4 4 4 6 9 9 7 5 5 9 10 9 8 8 8 8 8 9 9 10 10 10 11 11 11 11 12 13 13 13 14 16 17 17 16 15 14 14 13 12 12 13 13 12 11 11 10 10 11 11 11 11 12 13 13 14 14 14 14 14 14 14
Wind_Direction
173 171 171 171 173 176 179 183 191 199 208 216 220 234 248 254 252 258 264 265 266 270 274 278 280 282 282 280 277 275 273 272 273 274 275 277 278 279 279 279 279 278 277 277 278 280 281 282 284 284 284 283 283 280 278 276 277 278 280 281 284 283 278 271 266 262 260 259 259
180 179 178 180 182 190 199 208 212 214 214 216 220 228 235 239 237 242 247 250 255 262 266 270 273 275 276 276 276 275 274 273 273 273 274 275 276 278 279 279 279 279 279 280 280 281 281 280 279 277 276 274 274 273 273 276 280 283 285 286 288 287 283 278 274 273 273 273 271
187 187 187 190 195 203 210 211 211 209 201 197 201 205 206 208 213 214 216 224 241 246 249 252 259 261 264 272 276 277 274 273 271 271 271 272 273 275 277 279 281 283 284 286 287 287 286 284 281 276 271 267 266 264 265 273 278 284 289 292 293 292 289 285 282 281 282 281 280
190 190 191 195 198 202 204 203 200 196 186 178 183 183 180 180 183 185 193 209 217 223 229 238 246 251 254 260 269 273 272 270 268 270 271 273 274 276 279 281 285 289 292 295 297 298 296 293 290 283 277 271 266 263 265 272 277 280 284 286 290 293 293 290 288 287 286 285 283
186 184 185 187 190 192 193 194 190 184 179 180 174 169 166 168 168 175 185 193 201 219 235 242 250 255 257 260 267 271 275 278 277 277 278 282 283 285 285 288 293 297 302 306 309 310 308 305 302 298 292 286 280 278 277 277 277 276 275 277 281 285 287 287 288 288 288 286 284
179 176 175 177 178 178 179 180 179 178 179 184 178 169 166 168 177 188 201 219 252 262 264 265 268 271 273 275 276 279 283 286 288 288 289 290 291 293 296 298 300 304 307 313 316 316 315 313 312 309 305 302 298 296 294 291 286 279 273 271 274 277 278 278 280 282 283 283 282
173 170 167 167 169 171 171 173 176 179 183 187 190 188 194 214 242 264 277 284 286 287 287 287 288 287 287 287 287 287 288 289 290 290 291 292 294 297 299 301 303 306 309 313 314 315 315 314 314 314 313 311 310 309 308 307 300 292 284 278 277 276 275 273 274 275 276 277 277
169 166 163 163 165 166 167 169 174 182 192 208 225 241 261 276 284 286 288 289 293 296 297 297 297 296 295 294 293 293 292 292 292 292 292 293 294 296 298 299 301 303 305 308 309 310 310 310 310 311 312 312 311 312 313 313 310 304 298 292 287 283 280 276 274 273 273 273 271
162 161 162 163 165 168 172 180 194 213 238 261 274 283 289 292 293 292 293 295 296 298 299 300 299 299 298 297 296 295 295 294 293 293 293 293 294 295 296 297 298 298 300 302 304 304 304 304 303 304 305 306 306 307 309 310 311 308 305 301 296 291 287 282 280 278 277 275 273
155 156 159 161 164 172 186 207 238 262 277 287 293 297 300 301 300 300 299 300 301 302 302 300 300 300 300 298 297 296 296 295 294 293 293 293 293 293 294 294 294 295 295 297 298 298 298 298 297 297 297 297 298 300 301 303 305 305 305 304 302 298 294 289 286 284 283 282 280
151 153 156 157 161 179 218 259 280 290 296 300 303 306 307 308 308 308 308 308 308 307 305 305 305 304 302 300 299 298 297 296 294 293 292 291 290 290 289 289 289 289 289 290 291 291 291 291 291 291 291 291 292 293 295 297 298 299 300 301 301 300 298 295 292 290 288 288 287
148 151 155 155 166 212 271 290 298 303 307 310 312 314 315 315 316 317 317 317 314 312 312 313 314 311 308 306 304 303 300 297 295 293 291 289 288 285 283 281 280 279 279 279 280 281 281 281 282 284 285 286 286 288 289 291 292 293 295 296 297 297 297 296 294 293 291 289 288
146 150 151 151 194 286 300 305 310 315 319 322 324 326 327 328 327 328 327 325 323 322 323 324 323 322 318 316 314 313 310 307 304 301 297 294 291 286 282 277 274 271 269 268 269 269 270 270 273 275 277 279 281 283 285 287 288 289 290 291 292 293 293 293 293 292 290 287 286
150 148 116 52 346 327 326 330 335 338 340 343 343 342 343 344 344 343 341 337 335 336 335 333 333 332 332 332 333 336 336 334 332 329 325 320 315 309 301 292 284 276 270 266 265 266 268 269 269 270 272 274 276 277 279 281 283 284 285 287 288 288 288 289 288 287 285 283 282
48 39 32 22 15 6 5 11 12 7 5 10 1 356 356 358 357 354 351 348 347 345 343 341 342 345 352 358 358 359 1 5 6 5 3 359 353 345 335 322 307 293 283 276 275 275 276 278 275 274 274 274 274 274 275 276 278 280 281 282 282 282 282 282 281 280 278 276 276
38 48 43 40 39 39 40 42 36 32 30 27 14 9 9 9 6 2 359 356 353 351 351 351 352 358 10 18 14 12 13 18 21 21 20 19 14 7 0 352 338 321 304 295 290 294 297 295 294 295 292 287 282 279 276 274 275 276 276 276 276 276 275 273 272 270 269 268 268
75 70 64 63 64 65 64 61 57 53 48 41 29 24 20 17 15 13 10 3 357 356 358 3 6 11 16 18 17 16 17 20 22 24 24 24 20 15 14 17 26 39 49 45 7 343 339 334 333 335 335 329 320 307 297 288 283 280 277 275 273 270 267 264 261 259 259 259 260
100 92 87 84 82 78 75 71 67 63 58 50 43 37 32 27 24 22 19 12 5 1 4 11 21 25 25 20 18 18 18 18 20 21 22 22 20 18 19 29 47 60 64 50 0 349 352 351 350 354 3 14 21 20 13 0 344 326 309 299 289 277 266 258 253 251 250 251 253
109 105 99 92 85 80 77 73 69 65 60 55 50 45 41 36 30 25 21 18 14 12 14 22 30 35 33 28 24 22 20 18 19 20 22 23 22 22 25 36 52 65 71 52 13 7 5 359 358 10 34 50 58 60 60 60 60 61 61 62 62 61 61 62 65 73 140 207 230
115 107 97 88 82 79 77 74 70 66 62 58 54 49 45 40 36 28 23 21 22 25 29 35 36 36 35 32 29 26 22 19 25 26 27 27 27 29 34 42 53 60 61 51 38 26 18 18 48 70 78 81 81 79 77 76 75 73 70 67 64 62 60 60 61 63 66 70 72
113 102 91 84 81 79 78 77 72 69 65 61 56 52 48 45 41 34 29 28 32 39 44 45 42 37 33 30 29 28 25 24 33 36 35 35 37 40 45 48 51 51 48 42 40 38 40 55 72 79 81 81 80 78 77 77 75 72 68 64 60 57 54 53 54 55 57 59 61
107 97 89 86 85 85 83 80 74 70 66 63 60 56 53 49 43 39 37 39 45 51 53 51 45 39 34 29 26 27 31 37 44 46 46 46 50 53 55 55 54 51 47 43 45 52 61 69 73 75 74 73 71 69 68 67 66 64 61 58 54 50 47 45 45 46 48 49 50
104 98 95 93 92 89 85 79 73 69 67 65 62 59 55 49 44 42 43 48 54 60 59 55 48 41 37 32 28 30 38 46 52 54 56 58 61 63 62 60 59 55 51 48 48 53 59 64 66 68 70 69 65 61 59 58 58 56 54 51 49 46 43 40 40 41 42 43 44
107 105 104 100 95 89 82 75 69 66 64 64 63 59 53 46 40 40 44 52 60 64 64 58 51 44 38 34 33 35 41 47 53 57 61 66 67 65 63 61 60 57 53 50 48 48 50 52 56 60 64 65 62 58 55 53 52 51 50 48 45 43 40 38 38 38 39 40 41
113 111 106 100 93 84 77 69 64 61 61 61 61 58 50 41 35 36 44 56 64 66 61 57 53 46 39 34 35 39 45 49 54 58 62 65 65 63 61 59 55 53 50 48 46 44 43 44 46 52 57 60 61 58 54 51 48 48 48 46 43 40 37 35 35 35 36 37 38
113 110 105 98 91 82 73 66 61 59 58 58 58 54 44 36 32 36 46 58 65 62 55 54 53 46 37 34 38 43 47 50 55 59 60 61 60 61 59 54 48 44 45 46 46 45 44 42 41 43 48 54 58 57 52 47 45 46 47 46 43 39 35 32 31 32 33 34 35
111 106 101 97 89 80 71 65 60 57 55 54 52 46 38 33 34 40 50 60 63 57 52 51 52 47 41 41 44 46 46 48 54 61 63 62 58 56 54 48 43 41 43 46 46 47 46 44 41 40 43 49 55 56 54 49 47 47 46 44 42 39 35 30 28 27 28 30 31
108 103 98 91 82 75 70 65 60 56 52 49 46 40 33 31 36 44 53 59 57 50 46 46 51 54 54 52 51 50 50 53 60 64 65 63 58 53 49 45 42 41 43 46 47 48 47 45 43 42 44 50 56 59 58 55 51 48 46 43 41 38 35 30 27 24 24 24 26
108 103 95 85 75 69 66 63 59 56 51 46 43 36 30 30 38 47 54 56 50 43 40 42 51 61 65 62 58 57 58 63 67 67 64 59 55 52 49 44 41 40 41 44 48 48 47 46 45 45 47 51 57 61 60 57 53 49 45 42 39 37 34 30 27 24 22 22 23
109 103 94 82 72 66 62 61 59 56 50 44 40 34 29 31 39 46 50 50 45 40 39 42 54 66 70 67 64 63 65 69 72 70 64 57 52 50 47 44 40 37 37 40 46 49 49 48 47 46 47 49 55 60 60 58 54 49 45 41 38 35 32 29 26 24 23 22 22
107 100 90 80 71 63 60 59 60 56 49 40 34 28 28 32 39 44 47 47 44 40 38 42 56 69 75 73 69 68 69 72 74 72 65 58 53 51 50 46 40 35 32 35 41 47 51 51 49 47 46 46 51 56 58 57 53 48 43 39 35 31 28 25 23 22 22 22 21
100 93 87 80 71 64 59 59 60 57 50 39 28 22 23 31 38 44 49 54 54 45 37 40 54 69 77 78 73 70 70 71 71 70 68 65 61 57 54 49 41 33 28 29 35 45 52 54 51 47 43 42 44 49 52 52 50 46 41 36 32 28 25 22 20 20 21 22 20
90 86 83 80 74 67 62 59 58 58 51 40 28 19 17 25 34 42 49 58 64 59 48 45 53 66 76 78 75 70 68 67 67 68 69 69 66 62 58 51 42 32 24 24 29 39 49 54 52 45 39 35 37 40 43 46 45 41 37 32 29 25 21 18 17 17 19 20 19
84 82 81 79 75 69 64 59 57 54 49 40 30 19 14 18 24 35 47 59 63 62 58 57 61 70 78 81 77 72 67 65 64 66 68 68 68 64 59 52 43 31 23 23 25 32 42 50 51 46 36 30 29 32 36 39 38 35 31 27 23 19 16 14 13 14 15 17 16
80 78 78 78 76 71 64 60 55 49 41 35 30 22 14 10 10 21 48 69 71 67 65 68 78 87 89 86 81 75 69 65 63 63 65 66 66 63 59 54 47 35 26 24 24 26 32 42 46 44 36 28 25 26 30 32 32 28 24 21 18 14 10 8 8 10 12 13 12
77 75 77 80 77 70 63 59 52 41 32 29 27 23 14 3 352 347 55 102 99 89 80 82 89 92 90 84 80 76 71 67 63 63 63 63 62 60 57 53 48 39 30 25 23 22 23 30 36 37 32 23 20 21 25 27 26 21 17 14 12 9 5 3 3 5 7 9 8
78 78 80 84 81 71 63 60 49 32 24 27 30 24 12 356 341 329 139 121 114 103 93 90 91 91 88 84 81 80 77 72 67 65 63 61 58 56 53 51 47 41 34 26 22 19 18 20 25 27 24 19 17 17 20 22 19 15 11 8 5 2 360 359 359 1 3 4 3
77 81 83 83 81 76 69 62 43 25 24 34 35 24 4 352 351 11 84 112 111 105 98 95 95 95 95 94 92 88 83 77 72 68 64 61 57 53 50 47 45 41 34 26 22 17 15 16 21 23 21 20 19 18 18 18 15 11 6 2 359 356 355 356 356 358 359 0 359
73 77 78 76 77 76 72 61 39 24 29 44 42 25 4 0 21 58 91 105 104 100 98 97 98 99 101 102 101 94 86 79 74 70 66 61 55 50 46 43 41 38 32 25 21 17 14 14 21 27 28 27 27 23 19 15 12 8 3 359 354 352 352 352 353 354 355 356 356
69 76 77 75 75 75 72 59 40 30 39 51 51 38 21 26 49 73 95 103 101 98 97 97 100 103 105 105 102 96 87 79 72 67 64 59 52 45 41 37 35 32 28 23 19 16 13 13 19 26 31 33 35 30 21 15 11 7 2 358 354 351 349 349 350 351 352 352 354
73 79 80 79 77 75 71 59 46 42 48 53 55 51 45 56 66 76 89 101 104 104 103 100 102 104 106 106 103 97 90 80 71 64 58 52 45 39 34 31 28 25 22 20 17 14 12 12 16 21 28 37 38 33 24 16 10 6 2 359 355 352 348 347 346 348 349 350 350